Simultaneous Nadir Overpasses (SNOs) Predictions

Prediction of SNOs between AURA and NPP Satellite Orbit:

Table of predicted SNOs for the next 14.0 days since TLE Epoch: 8/10/2024
Index Date (AURA) Time (AURA) Lat,Lon (AURA) SZA (AURA ) Date (NPP) Time (NPP) Lat,Lon (NPP) SZA (NPP ) Distance(km) Time Diff (sec)
1 08/11/2024 17:01:39 -80.73, 15.26 104.67 08/11/2024 17:00:38 -80.74, 15.40 104.65 2.54 61
2 08/11/2024 17:51:00 80.78,-176.52 75.25 08/11/2024 17:51:21 80.77,-176.70 75.27 3.27 21
3 08/14/2024 06:45:24 80.77, -10.26 76.02 08/14/2024 06:45:17 80.77, -10.17 76.01 1.64 7
4 08/14/2024 07:34:34 -81.11, 162.11 104.71 08/14/2024 07:35:48 -81.02, 162.27 104.79 9.81 74
5 08/16/2024 19:39:46 80.75, 155.96 76.82 08/16/2024 19:39:14 80.75, 155.91 76.85 0.77 32
6 08/16/2024 20:29:07 -80.82, -35.57 103.31 08/16/2024 20:29:56 -80.81, -35.58 103.34 0.28 49
7 08/19/2024 08:34:04 80.75, -37.54 77.60 08/19/2024 08:33:08 80.76, -37.39 77.61 2.71 56
8 08/19/2024 09:23:26 -80.79, 130.59 102.47 08/19/2024 09:23:52 -80.79, 130.44 102.47 2.74 26



Historial Predications of SNOs between AURA and NPP
